Location: Krakow
(50.0830°N, 19.9170°E)
Time: 20:55:31
(UTC+01:00)

Altair - Pass Details

Date: 07 December 2023
Orbit: 1501 x 1682 km, 47.2° (Epoch: 03 March)

Event Time Altitude Azimuth Distance (km) Brightness Sun altitude
Rises 09:20:32 0° 254° (WSW) 4,810 9.9 11.7°
Reaches altitude 10° 09:23:41 10° 253° (WSW) 3,801 9.5 12.0°
Maximum altitude 09:33:14 73° 171° (S) 1,607 8.1 12.7°
Drops below altitude 10° 09:42:28 10° 89° (E) 3,678 9.9 13.4°
Sets 09:45:28 0° 88° (E) 4,649 10.3 13.6°
